Index of /20260430/WXO-DD/model_gdps/15km/12/081
Name Last modified Size Description
Parent Directory -
20260430T12Z_MSC_GDPS_AbsoluteVorticity_IsbL-0200_LatLon0.15_PT081H.grib2 2026-04-30 16:13 1.5M
20260430T12Z_MSC_GDPS_AbsoluteVorticity_IsbL-0250_LatLon0.15_PT081H.grib2 2026-04-30 16:13 1.6M
20260430T12Z_MSC_GDPS_AbsoluteVorticity_IsbL-0500_LatLon0.15_PT081H.grib2 2026-04-30 16:13 1.4M
20260430T12Z_MSC_GDPS_AbsoluteVorticity_IsbL-0700_LatLon0.15_PT081H.grib2 2026-04-30 16:13 1.6M
20260430T12Z_MSC_GDPS_AbsoluteVorticity_IsbL-0850_LatLon0.15_PT081H.grib2 2026-04-30 16:13 1.6M
20260430T12Z_MSC_GDPS_AirTemp_AGL-120m_LatLon0.15_PT081H.grib2 2026-04-30 16:13 912K
20260430T12Z_MSC_GDPS_AirTemp_AGL-2m_LatLon0.15_PT081H.grib2 2026-04-30 16:13 1.0M
20260430T12Z_MSC_GDPS_AirTemp_AGL-40m_LatLon0.15_PT081H.grib2 2026-04-30 16:13 819K
20260430T12Z_MSC_GDPS_AirTemp_AGL-80m_LatLon0.15_PT081H.grib2 2026-04-30 16:13 923K
20260430T12Z_MSC_GDPS_AirTemp_IsbL-0001_LatLon0.15_PT081H.grib2 2026-04-30 16:13 715K
20260430T12Z_MSC_GDPS_AirTemp_IsbL-0005_LatLon0.15_PT081H.grib2 2026-04-30 16:13 682K
20260430T12Z_MSC_GDPS_AirTemp_IsbL-0010_LatLon0.15_PT081H.grib2 2026-04-30 16:13 696K
20260430T12Z_MSC_GDPS_AirTemp_IsbL-0020_LatLon0.15_PT081H.grib2 2026-04-30 16:13 790K
20260430T12Z_MSC_GDPS_AirTemp_IsbL-0030_LatLon0.15_PT081H.grib2 2026-04-30 16:13 759K
20260430T12Z_MSC_GDPS_AirTemp_IsbL-0050_LatLon0.15_PT081H.grib2 2026-04-30 16:13 815K
20260430T12Z_MSC_GDPS_AirTemp_IsbL-0100_LatLon0.15_PT081H.grib2 2026-04-30 16:13 972K
20260430T12Z_MSC_GDPS_AirTemp_IsbL-0150_LatLon0.15_PT081H.grib2 2026-04-30 16:13 1.0M
20260430T12Z_MSC_GDPS_AirTemp_IsbL-0175_LatLon0.15_PT081H.grib2 2026-04-30 16:13 961K
20260430T12Z_MSC_GDPS_AirTemp_IsbL-0200_LatLon0.15_PT081H.grib2 2026-04-30 16:13 1.0M
20260430T12Z_MSC_GDPS_AirTemp_IsbL-0225_LatLon0.15_PT081H.grib2 2026-04-30 16:13 1.0M
20260430T12Z_MSC_GDPS_AirTemp_IsbL-0250_LatLon0.15_PT081H.grib2 2026-04-30 16:13 1.0M
20260430T12Z_MSC_GDPS_AirTemp_IsbL-0275_LatLon0.15_PT081H.grib2 2026-04-30 16:13 1.0M
20260430T12Z_MSC_GDPS_AirTemp_IsbL-0300_LatLon0.15_PT081H.grib2 2026-04-30 16:13 947K
20260430T12Z_MSC_GDPS_AirTemp_IsbL-0350_LatLon0.15_PT081H.grib2 2026-04-30 16:13 930K
20260430T12Z_MSC_GDPS_AirTemp_IsbL-0400_LatLon0.15_PT081H.grib2 2026-04-30 16:13 944K
20260430T12Z_MSC_GDPS_AirTemp_IsbL-0450_LatLon0.15_PT081H.grib2 2026-04-30 16:13 965K
20260430T12Z_MSC_GDPS_AirTemp_IsbL-0500_LatLon0.15_PT081H.grib2 2026-04-30 16:13 1.0M
20260430T12Z_MSC_GDPS_AirTemp_IsbL-0550_LatLon0.15_PT081H.grib2 2026-04-30 16:13 805K
20260430T12Z_MSC_GDPS_AirTemp_IsbL-0600_LatLon0.15_PT081H.grib2 2026-04-30 16:13 894K
20260430T12Z_MSC_GDPS_AirTemp_IsbL-0650_LatLon0.15_PT081H.grib2 2026-04-30 16:13 921K
20260430T12Z_MSC_GDPS_AirTemp_IsbL-0700_LatLon0.15_PT081H.grib2 2026-04-30 16:13 957K
20260430T12Z_MSC_GDPS_AirTemp_IsbL-0750_LatLon0.15_PT081H.grib2 2026-04-30 16:13 1.0M
20260430T12Z_MSC_GDPS_AirTemp_IsbL-0800_LatLon0.15_PT081H.grib2 2026-04-30 16:13 1.1M
20260430T12Z_MSC_GDPS_AirTemp_IsbL-0850_LatLon0.15_PT081H.grib2 2026-04-30 16:13 1.1M
20260430T12Z_MSC_GDPS_AirTemp_IsbL-0875_LatLon0.15_PT081H.grib2 2026-04-30 16:13 1.2M
20260430T12Z_MSC_GDPS_AirTemp_IsbL-0900_LatLon0.15_PT081H.grib2 2026-04-30 16:13 1.1M
20260430T12Z_MSC_GDPS_AirTemp_IsbL-0925_LatLon0.15_PT081H.grib2 2026-04-30 16:13 1.1M
20260430T12Z_MSC_GDPS_AirTemp_IsbL-0950_LatLon0.15_PT081H.grib2 2026-04-30 16:13 1.1M
20260430T12Z_MSC_GDPS_AirTemp_IsbL-0970_LatLon0.15_PT081H.grib2 2026-04-30 16:13 1.1M
20260430T12Z_MSC_GDPS_AirTemp_IsbL-0985_LatLon0.15_PT081H.grib2 2026-04-30 16:13 1.1M
20260430T12Z_MSC_GDPS_AirTemp_IsbL-1000_LatLon0.15_PT081H.grib2 2026-04-30 16:13 1.1M
20260430T12Z_MSC_GDPS_AirTemp_IsbL-1015_LatLon0.15_PT081H.grib2 2026-04-30 16:13 1.1M
20260430T12Z_MSC_GDPS_Albedo_Sfc_LatLon0.15_PT081H.grib2 2026-04-30 16:13 242K
20260430T12Z_MSC_GDPS_CAPE_Sfc_LatLon0.15_PT081H.grib2 2026-04-30 16:13 3.9M
20260430T12Z_MSC_GDPS_CIN_Sfc_LatLon0.15_PT081H.grib2 2026-04-30 16:13 2.8M
20260430T12Z_MSC_GDPS_CloudWater_EAtm_LatLon0.15_PT081H.grib2 2026-04-30 16:13 534K
20260430T12Z_MSC_GDPS_ConvectivePrecip-Accum_Sfc_LatLon0.15_PT081H.grib2 2026-04-30 16:13 3.2M
20260430T12Z_MSC_GDPS_DewPointDepression_AGL-2m_LatLon0.15_PT081H.grib2 2026-04-30 16:13 766K
20260430T12Z_MSC_GDPS_DewPointDepression_IsbL-0010_LatLon0.15_PT081H.grib2 2026-04-30 16:13 64K
20260430T12Z_MSC_GDPS_DewPointDepression_IsbL-0020_LatLon0.15_PT081H.grib2 2026-04-30 16:13 68K
20260430T12Z_MSC_GDPS_DewPointDepression_IsbL-0030_LatLon0.15_PT081H.grib2 2026-04-30 16:13 84K
20260430T12Z_MSC_GDPS_DewPointDepression_IsbL-0050_LatLon0.15_PT081H.grib2 2026-04-30 16:13 379K
20260430T12Z_MSC_GDPS_DewPointDepression_IsbL-0100_LatLon0.15_PT081H.grib2 2026-04-30 16:13 408K
20260430T12Z_MSC_GDPS_DewPointDepression_IsbL-0150_LatLon0.15_PT081H.grib2 2026-04-30 16:13 464K
20260430T12Z_MSC_GDPS_DewPointDepression_IsbL-0175_LatLon0.15_PT081H.grib2 2026-04-30 16:13 585K
20260430T12Z_MSC_GDPS_DewPointDepression_IsbL-0200_LatLon0.15_PT081H.grib2 2026-04-30 16:13 691K
20260430T12Z_MSC_GDPS_DewPointDepression_IsbL-0225_LatLon0.15_PT081H.grib2 2026-04-30 16:13 785K
20260430T12Z_MSC_GDPS_DewPointDepression_IsbL-0250_LatLon0.15_PT081H.grib2 2026-04-30 16:13 862K
20260430T12Z_MSC_GDPS_DewPointDepression_IsbL-0275_LatLon0.15_PT081H.grib2 2026-04-30 16:13 879K
20260430T12Z_MSC_GDPS_DewPointDepression_IsbL-0300_LatLon0.15_PT081H.grib2 2026-04-30 16:13 921K
20260430T12Z_MSC_GDPS_DewPointDepression_IsbL-0350_LatLon0.15_PT081H.grib2 2026-04-30 16:13 955K
20260430T12Z_MSC_GDPS_DewPointDepression_IsbL-0400_LatLon0.15_PT081H.grib2 2026-04-30 16:13 1.0M
20260430T12Z_MSC_GDPS_DewPointDepression_IsbL-0450_LatLon0.15_PT081H.grib2 2026-04-30 16:13 1.0M
20260430T12Z_MSC_GDPS_DewPointDepression_IsbL-0500_LatLon0.15_PT081H.grib2 2026-04-30 16:13 1.0M
20260430T12Z_MSC_GDPS_DewPointDepression_IsbL-0550_LatLon0.15_PT081H.grib2 2026-04-30 16:13 1.0M
20260430T12Z_MSC_GDPS_DewPointDepression_IsbL-0600_LatLon0.15_PT081H.grib2 2026-04-30 16:13 1.0M
20260430T12Z_MSC_GDPS_DewPointDepression_IsbL-0650_LatLon0.15_PT081H.grib2 2026-04-30 16:13 1.1M
20260430T12Z_MSC_GDPS_DewPointDepression_IsbL-0700_LatLon0.15_PT081H.grib2 2026-04-30 16:13 1.1M
20260430T12Z_MSC_GDPS_DewPointDepression_IsbL-0750_LatLon0.15_PT081H.grib2 2026-04-30 16:13 1.1M
20260430T12Z_MSC_GDPS_DewPointDepression_IsbL-0800_LatLon0.15_PT081H.grib2 2026-04-30 16:13 1.2M
20260430T12Z_MSC_GDPS_DewPointDepression_IsbL-0850_LatLon0.15_PT081H.grib2 2026-04-30 16:13 1.2M
20260430T12Z_MSC_GDPS_DewPointDepression_IsbL-0875_LatLon0.15_PT081H.grib2 2026-04-30 16:13 1.1M
20260430T12Z_MSC_GDPS_DewPointDepression_IsbL-0900_LatLon0.15_PT081H.grib2 2026-04-30 16:13 1.1M
20260430T12Z_MSC_GDPS_DewPointDepression_IsbL-0925_LatLon0.15_PT081H.grib2 2026-04-30 16:13 1.0M
20260430T12Z_MSC_GDPS_DewPointDepression_IsbL-0950_LatLon0.15_PT081H.grib2 2026-04-30 16:13 1.0M
20260430T12Z_MSC_GDPS_DewPointDepression_IsbL-0970_LatLon0.15_PT081H.grib2 2026-04-30 16:13 1.0M
20260430T12Z_MSC_GDPS_DewPointDepression_IsbL-0985_LatLon0.15_PT081H.grib2 2026-04-30 16:13 1.0M
20260430T12Z_MSC_GDPS_DewPointDepression_IsbL-1000_LatLon0.15_PT081H.grib2 2026-04-30 16:13 1.0M
20260430T12Z_MSC_GDPS_DewPointDepression_IsbL-1015_LatLon0.15_PT081H.grib2 2026-04-30 16:13 918K
20260430T12Z_MSC_GDPS_DewPoint_AGL-2m_LatLon0.15_PT081H.grib2 2026-04-30 16:13 607K
20260430T12Z_MSC_GDPS_DownwardLongwaveRadiationFlux-Accum_Sfc_LatLon0.15_PT081H.grib2 2026-04-30 16:13 689K
20260430T12Z_MSC_GDPS_DownwardShortwaveRadiationFlux-Accum_NTAtm_LatLon0.15_PT081H.grib2 2026-04-30 16:13 264K
20260430T12Z_MSC_GDPS_DownwardShortwaveRadiationFlux-Accum_Sfc_LatLon0.15_PT081H.grib2 2026-04-30 16:13 897K
20260430T12Z_MSC_GDPS_FreezingRain-Accum1h_Sfc_LatLon0.15_PT081H.grib2 2026-04-30 16:13 37K
20260430T12Z_MSC_GDPS_FreezingRain-Accum3h_Sfc_LatLon0.15_PT081H.grib2 2026-04-30 16:13 44K
20260430T12Z_MSC_GDPS_FreezingRain-Accum_Sfc_LatLon0.15_PT081H.grib2 2026-04-30 16:13 331K
20260430T12Z_MSC_GDPS_GeopotentialHeight_IsbL-0001_LatLon0.15_PT081H.grib2 2026-04-30 16:13 416K
20260430T12Z_MSC_GDPS_GeopotentialHeight_IsbL-0005_LatLon0.15_PT081H.grib2 2026-04-30 16:13 492K
20260430T12Z_MSC_GDPS_GeopotentialHeight_IsbL-0010_LatLon0.15_PT081H.grib2 2026-04-30 16:13 484K
20260430T12Z_MSC_GDPS_GeopotentialHeight_IsbL-0020_LatLon0.15_PT081H.grib2 2026-04-30 16:13 412K
20260430T12Z_MSC_GDPS_GeopotentialHeight_IsbL-0030_LatLon0.15_PT081H.grib2 2026-04-30 16:13 571K
20260430T12Z_MSC_GDPS_GeopotentialHeight_IsbL-0050_LatLon0.15_PT081H.grib2 2026-04-30 16:13 569K
20260430T12Z_MSC_GDPS_GeopotentialHeight_IsbL-0100_LatLon0.15_PT081H.grib2 2026-04-30 16:13 606K
20260430T12Z_MSC_GDPS_GeopotentialHeight_IsbL-0150_LatLon0.15_PT081H.grib2 2026-04-30 16:13 625K
20260430T12Z_MSC_GDPS_GeopotentialHeight_IsbL-0175_LatLon0.15_PT081H.grib2 2026-04-30 16:13 629K
20260430T12Z_MSC_GDPS_GeopotentialHeight_IsbL-0200_LatLon0.15_PT081H.grib2 2026-04-30 16:13 633K
20260430T12Z_MSC_GDPS_GeopotentialHeight_IsbL-0225_LatLon0.15_PT081H.grib2 2026-04-30 16:13 635K
20260430T12Z_MSC_GDPS_GeopotentialHeight_IsbL-0250_LatLon0.15_PT081H.grib2 2026-04-30 16:13 639K
20260430T12Z_MSC_GDPS_GeopotentialHeight_IsbL-0275_LatLon0.15_PT081H.grib2 2026-04-30 16:13 638K
20260430T12Z_MSC_GDPS_GeopotentialHeight_IsbL-0300_LatLon0.15_PT081H.grib2 2026-04-30 16:13 630K
20260430T12Z_MSC_GDPS_GeopotentialHeight_IsbL-0350_LatLon0.15_PT081H.grib2 2026-04-30 16:13 624K
20260430T12Z_MSC_GDPS_GeopotentialHeight_IsbL-0400_LatLon0.15_PT081H.grib2 2026-04-30 16:13 616K
20260430T12Z_MSC_GDPS_GeopotentialHeight_IsbL-0450_LatLon0.15_PT081H.grib2 2026-04-30 16:13 608K
20260430T12Z_MSC_GDPS_GeopotentialHeight_IsbL-0500_LatLon0.15_PT081H.grib2 2026-04-30 16:13 596K
20260430T12Z_MSC_GDPS_GeopotentialHeight_IsbL-0550_LatLon0.15_PT081H.grib2 2026-04-30 16:13 526K
20260430T12Z_MSC_GDPS_GeopotentialHeight_IsbL-0600_LatLon0.15_PT081H.grib2 2026-04-30 16:13 522K
20260430T12Z_MSC_GDPS_GeopotentialHeight_IsbL-0650_LatLon0.15_PT081H.grib2 2026-04-30 16:13 687K
20260430T12Z_MSC_GDPS_GeopotentialHeight_IsbL-0700_LatLon0.15_PT081H.grib2 2026-04-30 16:13 688K
20260430T12Z_MSC_GDPS_GeopotentialHeight_IsbL-0750_LatLon0.15_PT081H.grib2 2026-04-30 16:13 693K
20260430T12Z_MSC_GDPS_GeopotentialHeight_IsbL-0800_LatLon0.15_PT081H.grib2 2026-04-30 16:13 701K
20260430T12Z_MSC_GDPS_GeopotentialHeight_IsbL-0850_LatLon0.15_PT081H.grib2 2026-04-30 16:13 707K
20260430T12Z_MSC_GDPS_GeopotentialHeight_IsbL-0875_LatLon0.15_PT081H.grib2 2026-04-30 16:13 713K
20260430T12Z_MSC_GDPS_GeopotentialHeight_IsbL-0900_LatLon0.15_PT081H.grib2 2026-04-30 16:13 723K
20260430T12Z_MSC_GDPS_GeopotentialHeight_IsbL-0925_LatLon0.15_PT081H.grib2 2026-04-30 16:13 732K
20260430T12Z_MSC_GDPS_GeopotentialHeight_IsbL-0950_LatLon0.15_PT081H.grib2 2026-04-30 16:13 739K
20260430T12Z_MSC_GDPS_GeopotentialHeight_IsbL-0970_LatLon0.15_PT081H.grib2 2026-04-30 16:13 749K
20260430T12Z_MSC_GDPS_GeopotentialHeight_IsbL-0985_LatLon0.15_PT081H.grib2 2026-04-30 16:13 765K
20260430T12Z_MSC_GDPS_GeopotentialHeight_IsbL-1000_LatLon0.15_PT081H.grib2 2026-04-30 16:13 785K
20260430T12Z_MSC_GDPS_GeopotentialHeight_IsbL-1015_LatLon0.15_PT081H.grib2 2026-04-30 16:13 809K
20260430T12Z_MSC_GDPS_Humidex_Sfc_LatLon0.15_PT081H.grib2 2026-04-30 16:13 5.3M
20260430T12Z_MSC_GDPS_IcePellets-Accum1h_Sfc_LatLon0.15_PT081H.grib2 2026-04-30 16:13 3.7K
20260430T12Z_MSC_GDPS_IcePellets-Accum3h_Sfc_LatLon0.15_PT081H.grib2 2026-04-30 16:13 4.4K
20260430T12Z_MSC_GDPS_IcePellets-Accum_Sfc_LatLon0.15_PT081H.grib2 2026-04-30 16:13 69K
20260430T12Z_MSC_GDPS_KIndex_Sfc_LatLon0.15_PT081H.grib2 2026-04-30 16:13 6.5M
20260430T12Z_MSC_GDPS_LatentHeatNetFlux_Sfc_LatLon0.15_PT081H.grib2 2026-04-30 16:13 671K
20260430T12Z_MSC_GDPS_LiftedIndex-MU-VT_IsbL-0500_LatLon0.15_PT081H.grib2 2026-04-30 16:13 5.4M
20260430T12Z_MSC_GDPS_NetLongwaveRadiationFlux-Accum_Sfc_LatLon0.15_PT081H.grib2 2026-04-30 16:13 920K
20260430T12Z_MSC_GDPS_NetShortwaveRadiationFlux-Accum_Sfc_LatLon0.15_PT081H.grib2 2026-04-30 16:13 884K
20260430T12Z_MSC_GDPS_O3MixingRatio_Sfc_LatLon0.15_PT081H.grib2 2026-04-30 16:44 1.9M
20260430T12Z_MSC_GDPS_O3_EAtm_LatLon0.15_PT081H.grib2 2026-04-30 16:44 2.4M
20260430T12Z_MSC_GDPS_PlanetaryBoundaryLayerHeight_Sfc_LatLon0.15_PT081H.grib2 2026-04-30 16:13 2.4M
20260430T12Z_MSC_GDPS_Precip-Accum1h_Sfc_LatLon0.15_PT081H.grib2 2026-04-30 16:13 3.2M
20260430T12Z_MSC_GDPS_Precip-Accum3h_Sfc_LatLon0.15_PT081H.grib2 2026-04-30 16:13 3.5M
20260430T12Z_MSC_GDPS_Precip-Accum_Sfc_LatLon0.15_PT081H.grib2 2026-04-30 16:13 5.2M
20260430T12Z_MSC_GDPS_PrecipRate_Sfc_LatLon0.15_PT081H.grib2 2026-04-30 16:13 3.0M
20260430T12Z_MSC_GDPS_PrecipType-Instant_Sfc_LatLon0.15_PT081H.grib2 2026-04-30 16:13 1.6M
20260430T12Z_MSC_GDPS_Pressure_MSL_LatLon0.15_PT081H.grib2 2026-04-30 16:13 825K
20260430T12Z_MSC_GDPS_Pressure_PVU-1.5_LatLon0.15_PT081H.grib2 2026-04-30 16:13 5.8M
20260430T12Z_MSC_GDPS_Pressure_PVU-1_LatLon0.15_PT081H.grib2 2026-04-30 16:13 6.0M
20260430T12Z_MSC_GDPS_Pressure_PVU-2_LatLon0.15_PT081H.grib2 2026-04-30 16:13 5.6M
20260430T12Z_MSC_GDPS_Pressure_Sfc_LatLon0.15_PT081H.grib2 2026-04-30 16:13 1.1M
20260430T12Z_MSC_GDPS_RadiativeTemp_Sfc_LatLon0.15_PT081H.grib2 2026-04-30 16:13 660K
20260430T12Z_MSC_GDPS_Rain-Accum1h_Sfc_LatLon0.15_PT081H.grib2 2026-04-30 16:13 1.6M
20260430T12Z_MSC_GDPS_Rain-Accum3h_Sfc_LatLon0.15_PT081H.grib2 2026-04-30 16:13 1.8M
20260430T12Z_MSC_GDPS_Rain-Accum_Sfc_LatLon0.15_PT081H.grib2 2026-04-30 16:13 4.0M
20260430T12Z_MSC_GDPS_RelativeHumidity_AGL-2m_LatLon0.15_PT081H.grib2 2026-04-30 16:13 1.0M
20260430T12Z_MSC_GDPS_RelativeHumidity_IsbL-0010_LatLon0.15_PT081H.grib2 2026-04-30 16:13 196K
20260430T12Z_MSC_GDPS_RelativeHumidity_IsbL-0020_LatLon0.15_PT081H.grib2 2026-04-30 16:13 168K
20260430T12Z_MSC_GDPS_RelativeHumidity_IsbL-0030_LatLon0.15_PT081H.grib2 2026-04-30 16:13 270K
20260430T12Z_MSC_GDPS_RelativeHumidity_IsbL-0050_LatLon0.15_PT081H.grib2 2026-04-30 16:13 426K
20260430T12Z_MSC_GDPS_RelativeHumidity_IsbL-0100_LatLon0.15_PT081H.grib2 2026-04-30 16:13 508K
20260430T12Z_MSC_GDPS_RelativeHumidity_IsbL-0150_LatLon0.15_PT081H.grib2 2026-04-30 16:13 657K
20260430T12Z_MSC_GDPS_RelativeHumidity_IsbL-0175_LatLon0.15_PT081H.grib2 2026-04-30 16:13 789K
20260430T12Z_MSC_GDPS_RelativeHumidity_IsbL-0200_LatLon0.15_PT081H.grib2 2026-04-30 16:13 710K
20260430T12Z_MSC_GDPS_RelativeHumidity_IsbL-0225_LatLon0.15_PT081H.grib2 2026-04-30 16:13 796K
20260430T12Z_MSC_GDPS_RelativeHumidity_IsbL-0250_LatLon0.15_PT081H.grib2 2026-04-30 16:13 870K
20260430T12Z_MSC_GDPS_RelativeHumidity_IsbL-0275_LatLon0.15_PT081H.grib2 2026-04-30 16:13 889K
20260430T12Z_MSC_GDPS_RelativeHumidity_IsbL-0300_LatLon0.15_PT081H.grib2 2026-04-30 16:13 930K
20260430T12Z_MSC_GDPS_RelativeHumidity_IsbL-0350_LatLon0.15_PT081H.grib2 2026-04-30 16:13 953K
20260430T12Z_MSC_GDPS_RelativeHumidity_IsbL-0400_LatLon0.15_PT081H.grib2 2026-04-30 16:13 1.0M
20260430T12Z_MSC_GDPS_RelativeHumidity_IsbL-0450_LatLon0.15_PT081H.grib2 2026-04-30 16:13 1.0M
20260430T12Z_MSC_GDPS_RelativeHumidity_IsbL-0500_LatLon0.15_PT081H.grib2 2026-04-30 16:13 1.0M
20260430T12Z_MSC_GDPS_RelativeHumidity_IsbL-0550_LatLon0.15_PT081H.grib2 2026-04-30 16:13 1.0M
20260430T12Z_MSC_GDPS_RelativeHumidity_IsbL-0600_LatLon0.15_PT081H.grib2 2026-04-30 16:13 1.0M
20260430T12Z_MSC_GDPS_RelativeHumidity_IsbL-0650_LatLon0.15_PT081H.grib2 2026-04-30 16:13 1.1M
20260430T12Z_MSC_GDPS_RelativeHumidity_IsbL-0700_LatLon0.15_PT081H.grib2 2026-04-30 16:13 1.1M
20260430T12Z_MSC_GDPS_RelativeHumidity_IsbL-0750_LatLon0.15_PT081H.grib2 2026-04-30 16:13 1.2M
20260430T12Z_MSC_GDPS_RelativeHumidity_IsbL-0800_LatLon0.15_PT081H.grib2 2026-04-30 16:13 1.2M
20260430T12Z_MSC_GDPS_RelativeHumidity_IsbL-0850_LatLon0.15_PT081H.grib2 2026-04-30 16:13 1.3M
20260430T12Z_MSC_GDPS_RelativeHumidity_IsbL-0875_LatLon0.15_PT081H.grib2 2026-04-30 16:13 1.3M
20260430T12Z_MSC_GDPS_RelativeHumidity_IsbL-0900_LatLon0.15_PT081H.grib2 2026-04-30 16:13 1.2M
20260430T12Z_MSC_GDPS_RelativeHumidity_IsbL-0925_LatLon0.15_PT081H.grib2 2026-04-30 16:13 1.2M
20260430T12Z_MSC_GDPS_RelativeHumidity_IsbL-0950_LatLon0.15_PT081H.grib2 2026-04-30 16:13 1.2M
20260430T12Z_MSC_GDPS_RelativeHumidity_IsbL-0970_LatLon0.15_PT081H.grib2 2026-04-30 16:13 1.2M
20260430T12Z_MSC_GDPS_RelativeHumidity_IsbL-0985_LatLon0.15_PT081H.grib2 2026-04-30 16:13 1.2M
20260430T12Z_MSC_GDPS_RelativeHumidity_IsbL-1000_LatLon0.15_PT081H.grib2 2026-04-30 16:13 1.1M
20260430T12Z_MSC_GDPS_RelativeHumidity_IsbL-1015_LatLon0.15_PT081H.grib2 2026-04-30 16:13 1.0M
20260430T12Z_MSC_GDPS_RelativeVorticity_IsbL-0200_LatLon0.15_PT081H.grib2 2026-04-30 16:13 1.5M
20260430T12Z_MSC_GDPS_RelativeVorticity_IsbL-0250_LatLon0.15_PT081H.grib2 2026-04-30 16:13 1.6M
20260430T12Z_MSC_GDPS_RelativeVorticity_IsbL-0500_LatLon0.15_PT081H.grib2 2026-04-30 16:13 1.4M
20260430T12Z_MSC_GDPS_RelativeVorticity_IsbL-0700_LatLon0.15_PT081H.grib2 2026-04-30 16:13 1.3M
20260430T12Z_MSC_GDPS_RelativeVorticity_IsbL-0850_LatLon0.15_PT081H.grib2 2026-04-30 16:13 1.6M
20260430T12Z_MSC_GDPS_Runoff-Accum_Sfc_LatLon0.15_PT081H.grib2 2026-04-30 16:13 119K
20260430T12Z_MSC_GDPS_SensibleHeatNetFlux_Sfc_LatLon0.15_PT081H.grib2 2026-04-30 16:13 609K
20260430T12Z_MSC_GDPS_ShowalterIndex_IsbL-0500_LatLon0.15_PT081H.grib2 2026-04-30 16:13 6.2M
20260430T12Z_MSC_GDPS_Snow-Accum1h_Sfc_LatLon0.15_PT081H.grib2 2026-04-30 16:13 1.1M
20260430T12Z_MSC_GDPS_Snow-Accum3h_Sfc_LatLon0.15_PT081H.grib2 2026-04-30 16:13 1.0M
20260430T12Z_MSC_GDPS_Snow-Accum_Sfc_LatLon0.15_PT081H.grib2 2026-04-30 16:13 1.9M
20260430T12Z_MSC_GDPS_SnowDensity_Sfc_LatLon0.15_PT081H.grib2 2026-04-30 16:13 263K
20260430T12Z_MSC_GDPS_SnowDepth_Sfc_LatLon0.15_PT081H.grib2 2026-04-30 16:13 1.7M
20260430T12Z_MSC_GDPS_SoilTemp_DBS-0to10cm_LatLon0.15_PT081H.grib2 2026-04-30 16:13 511K
20260430T12Z_MSC_GDPS_SoilTemp_Sfc_LatLon0.15_PT081H.grib2 2026-04-30 16:13 579K
20260430T12Z_MSC_GDPS_SoilVolumetricIceContent_Sfc_LatLon0.15_PT081H.grib2 2026-04-30 16:13 197K
20260430T12Z_MSC_GDPS_SoilVolumetricWaterContent_DBS-0to10cm_LatLon0.15_PT081H.grib2 2026-04-30 16:13 588K
20260430T12Z_MSC_GDPS_SoilVolumetricWaterContent_DBS-0to1cm_LatLon0.15_PT081H.grib2 2026-04-30 16:13 652K
20260430T12Z_MSC_GDPS_SpecificHumidity_AGL-120m_LatLon0.15_PT081H.grib2 2026-04-30 16:13 1.1M
20260430T12Z_MSC_GDPS_SpecificHumidity_AGL-2m_LatLon0.15_PT081H.grib2 2026-04-30 16:13 1.2M
20260430T12Z_MSC_GDPS_SpecificHumidity_AGL-40m_LatLon0.15_PT081H.grib2 2026-04-30 16:13 1.1M
20260430T12Z_MSC_GDPS_SpecificHumidity_AGL-80m_LatLon0.15_PT081H.grib2 2026-04-30 16:13 1.1M
20260430T12Z_MSC_GDPS_SpecificHumidity_IsbL-0001_LatLon0.15_PT081H.grib2 2026-04-30 16:13 1.3M
20260430T12Z_MSC_GDPS_SpecificHumidity_IsbL-0005_LatLon0.15_PT081H.grib2 2026-04-30 16:13 1.2M
20260430T12Z_MSC_GDPS_SpecificHumidity_IsbL-0010_LatLon0.15_PT081H.grib2 2026-04-30 16:13 1.3M
20260430T12Z_MSC_GDPS_SpecificHumidity_IsbL-0020_LatLon0.15_PT081H.grib2 2026-04-30 16:13 1.3M
20260430T12Z_MSC_GDPS_SpecificHumidity_IsbL-0030_LatLon0.15_PT081H.grib2 2026-04-30 16:13 1.3M
20260430T12Z_MSC_GDPS_SpecificHumidity_IsbL-0050_LatLon0.15_PT081H.grib2 2026-04-30 16:13 1.6M
20260430T12Z_MSC_GDPS_SpecificHumidity_IsbL-0100_LatLon0.15_PT081H.grib2 2026-04-30 16:13 1.3M
20260430T12Z_MSC_GDPS_SpecificHumidity_IsbL-0150_LatLon0.15_PT081H.grib2 2026-04-30 16:13 1.3M
20260430T12Z_MSC_GDPS_SpecificHumidity_IsbL-0175_LatLon0.15_PT081H.grib2 2026-04-30 16:13 1.3M
20260430T12Z_MSC_GDPS_SpecificHumidity_IsbL-0200_LatLon0.15_PT081H.grib2 2026-04-30 16:13 1.3M
20260430T12Z_MSC_GDPS_SpecificHumidity_IsbL-0225_LatLon0.15_PT081H.grib2 2026-04-30 16:13 1.3M
20260430T12Z_MSC_GDPS_SpecificHumidity_IsbL-0250_LatLon0.15_PT081H.grib2 2026-04-30 16:13 1.4M
20260430T12Z_MSC_GDPS_SpecificHumidity_IsbL-0275_LatLon0.15_PT081H.grib2 2026-04-30 16:13 1.3M
20260430T12Z_MSC_GDPS_SpecificHumidity_IsbL-0300_LatLon0.15_PT081H.grib2 2026-04-30 16:13 1.2M
20260430T12Z_MSC_GDPS_SpecificHumidity_IsbL-0350_LatLon0.15_PT081H.grib2 2026-04-30 16:13 1.2M
20260430T12Z_MSC_GDPS_SpecificHumidity_IsbL-0400_LatLon0.15_PT081H.grib2 2026-04-30 16:13 1.5M
20260430T12Z_MSC_GDPS_SpecificHumidity_IsbL-0450_LatLon0.15_PT081H.grib2 2026-04-30 16:13 1.3M
20260430T12Z_MSC_GDPS_SpecificHumidity_IsbL-0500_LatLon0.15_PT081H.grib2 2026-04-30 16:13 1.4M
20260430T12Z_MSC_GDPS_SpecificHumidity_IsbL-0550_LatLon0.15_PT081H.grib2 2026-04-30 16:13 1.6M
20260430T12Z_MSC_GDPS_SpecificHumidity_IsbL-0600_LatLon0.15_PT081H.grib2 2026-04-30 16:13 1.7M
20260430T12Z_MSC_GDPS_SpecificHumidity_IsbL-0650_LatLon0.15_PT081H.grib2 2026-04-30 16:13 1.5M
20260430T12Z_MSC_GDPS_SpecificHumidity_IsbL-0700_LatLon0.15_PT081H.grib2 2026-04-30 16:13 1.6M
20260430T12Z_MSC_GDPS_SpecificHumidity_IsbL-0750_LatLon0.15_PT081H.grib2 2026-04-30 16:13 1.7M
20260430T12Z_MSC_GDPS_SpecificHumidity_IsbL-0800_LatLon0.15_PT081H.grib2 2026-04-30 16:13 1.9M
20260430T12Z_MSC_GDPS_SpecificHumidity_IsbL-0850_LatLon0.15_PT081H.grib2 2026-04-30 16:13 1.9M
20260430T12Z_MSC_GDPS_SpecificHumidity_IsbL-0875_LatLon0.15_PT081H.grib2 2026-04-30 16:13 1.9M
20260430T12Z_MSC_GDPS_SpecificHumidity_IsbL-0900_LatLon0.15_PT081H.grib2 2026-04-30 16:13 1.9M
20260430T12Z_MSC_GDPS_SpecificHumidity_IsbL-0925_LatLon0.15_PT081H.grib2 2026-04-30 16:13 1.6M
20260430T12Z_MSC_GDPS_SpecificHumidity_IsbL-0950_LatLon0.15_PT081H.grib2 2026-04-30 16:13 1.6M
20260430T12Z_MSC_GDPS_SpecificHumidity_IsbL-0970_LatLon0.15_PT081H.grib2 2026-04-30 16:13 1.5M
20260430T12Z_MSC_GDPS_SpecificHumidity_IsbL-0985_LatLon0.15_PT081H.grib2 2026-04-30 16:13 1.5M
20260430T12Z_MSC_GDPS_SpecificHumidity_IsbL-1000_LatLon0.15_PT081H.grib2 2026-04-30 16:13 1.5M
20260430T12Z_MSC_GDPS_SpecificHumidity_IsbL-1015_LatLon0.15_PT081H.grib2 2026-04-30 16:13 1.4M
20260430T12Z_MSC_GDPS_SpecificHumidity_Sfc_LatLon0.15_PT081H.grib2 2026-04-30 16:13 635K
20260430T12Z_MSC_GDPS_Thickness_IsbL-0850to0700_LatLon0.15_PT081H.grib2 2026-04-30 16:13 467K
20260430T12Z_MSC_GDPS_Thickness_IsbL-1000to0500_LatLon0.15_PT081H.grib2 2026-04-30 16:13 372K
20260430T12Z_MSC_GDPS_Thickness_IsbL-1000to0850_LatLon0.15_PT081H.grib2 2026-04-30 16:13 489K
20260430T12Z_MSC_GDPS_TotalCloudCover_Sfc_LatLon0.15_PT081H.grib2 2026-04-30 16:13 824K
20260430T12Z_MSC_GDPS_TotalTotalsIndex_Sfc_LatLon0.15_PT081H.grib2 2026-04-30 16:13 6.2M
20260430T12Z_MSC_GDPS_UVIndex-ClearSky_Sfc_LatLon0.15_PT081H.grib2 2026-04-30 16:44 1.0M
20260430T12Z_MSC_GDPS_UVIndex_Sfc_LatLon0.15_PT081H.grib2 2026-04-30 16:44 1.5M
20260430T12Z_MSC_GDPS_UpwardLongwaveRadiationFlux_NTAtm_LatLon0.15_PT081H.grib2 2026-04-30 16:13 838K
20260430T12Z_MSC_GDPS_VerticalVelocity_IsbL-0200_LatLon0.15_PT081H.grib2 2026-04-30 16:13 935K
20260430T12Z_MSC_GDPS_VerticalVelocity_IsbL-0250_LatLon0.15_PT081H.grib2 2026-04-30 16:13 1.1M
20260430T12Z_MSC_GDPS_VerticalVelocity_IsbL-0500_LatLon0.15_PT081H.grib2 2026-04-30 16:13 1.0M
20260430T12Z_MSC_GDPS_VerticalVelocity_IsbL-0600_LatLon0.15_PT081H.grib2 2026-04-30 16:13 1.1M
20260430T12Z_MSC_GDPS_VerticalVelocity_IsbL-0700_LatLon0.15_PT081H.grib2 2026-04-30 16:13 1.1M
20260430T12Z_MSC_GDPS_VerticalVelocity_IsbL-0850_LatLon0.15_PT081H.grib2 2026-04-30 16:13 1.6M
20260430T12Z_MSC_GDPS_WindChill_Sfc_LatLon0.15_PT081H.grib2 2026-04-30 16:13 5.3M
20260430T12Z_MSC_GDPS_WindDir_AGL-10m_LatLon0.15_PT081H.grib2 2026-04-30 16:13 1.3M
20260430T12Z_MSC_GDPS_WindDir_AGL-120m_LatLon0.15_PT081H.grib2 2026-04-30 16:13 1.3M
20260430T12Z_MSC_GDPS_WindDir_AGL-40m_LatLon0.15_PT081H.grib2 2026-04-30 16:13 1.4M
20260430T12Z_MSC_GDPS_WindDir_AGL-80m_LatLon0.15_PT081H.grib2 2026-04-30 16:13 1.4M
20260430T12Z_MSC_GDPS_WindDir_IsbL-0001_LatLon0.15_PT081H.grib2 2026-04-30 16:13 679K
20260430T12Z_MSC_GDPS_WindDir_IsbL-0005_LatLon0.15_PT081H.grib2 2026-04-30 16:13 795K
20260430T12Z_MSC_GDPS_WindDir_IsbL-0010_LatLon0.15_PT081H.grib2 2026-04-30 16:13 839K
20260430T12Z_MSC_GDPS_WindDir_IsbL-0020_LatLon0.15_PT081H.grib2 2026-04-30 16:13 948K
20260430T12Z_MSC_GDPS_WindDir_IsbL-0030_LatLon0.15_PT081H.grib2 2026-04-30 16:13 936K
20260430T12Z_MSC_GDPS_WindDir_IsbL-0050_LatLon0.15_PT081H.grib2 2026-04-30 16:13 946K
20260430T12Z_MSC_GDPS_WindDir_IsbL-0100_LatLon0.15_PT081H.grib2 2026-04-30 16:13 1.0M
20260430T12Z_MSC_GDPS_WindDir_IsbL-0150_LatLon0.15_PT081H.grib2 2026-04-30 16:13 1.0M
20260430T12Z_MSC_GDPS_WindDir_IsbL-0175_LatLon0.15_PT081H.grib2 2026-04-30 16:13 1.1M
20260430T12Z_MSC_GDPS_WindDir_IsbL-0200_LatLon0.15_PT081H.grib2 2026-04-30 16:13 1.1M
20260430T12Z_MSC_GDPS_WindDir_IsbL-0225_LatLon0.15_PT081H.grib2 2026-04-30 16:13 1.1M
20260430T12Z_MSC_GDPS_WindDir_IsbL-0250_LatLon0.15_PT081H.grib2 2026-04-30 16:13 1.1M
20260430T12Z_MSC_GDPS_WindDir_IsbL-0275_LatLon0.15_PT081H.grib2 2026-04-30 16:13 1.2M
20260430T12Z_MSC_GDPS_WindDir_IsbL-0300_LatLon0.15_PT081H.grib2 2026-04-30 16:13 1.2M
20260430T12Z_MSC_GDPS_WindDir_IsbL-0350_LatLon0.15_PT081H.grib2 2026-04-30 16:13 1.2M
20260430T12Z_MSC_GDPS_WindDir_IsbL-0400_LatLon0.15_PT081H.grib2 2026-04-30 16:13 1.3M
20260430T12Z_MSC_GDPS_WindDir_IsbL-0450_LatLon0.15_PT081H.grib2 2026-04-30 16:13 1.3M
20260430T12Z_MSC_GDPS_WindDir_IsbL-0500_LatLon0.15_PT081H.grib2 2026-04-30 16:13 1.3M
20260430T12Z_MSC_GDPS_WindDir_IsbL-0550_LatLon0.15_PT081H.grib2 2026-04-30 16:13 1.4M
20260430T12Z_MSC_GDPS_WindDir_IsbL-0600_LatLon0.15_PT081H.grib2 2026-04-30 16:13 1.4M
20260430T12Z_MSC_GDPS_WindDir_IsbL-0650_LatLon0.15_PT081H.grib2 2026-04-30 16:13 1.5M
20260430T12Z_MSC_GDPS_WindDir_IsbL-0700_LatLon0.15_PT081H.grib2 2026-04-30 16:13 1.6M
20260430T12Z_MSC_GDPS_WindDir_IsbL-0750_LatLon0.15_PT081H.grib2 2026-04-30 16:13 1.7M
20260430T12Z_MSC_GDPS_WindDir_IsbL-0800_LatLon0.15_PT081H.grib2 2026-04-30 16:13 1.8M
20260430T12Z_MSC_GDPS_WindDir_IsbL-0850_LatLon0.15_PT081H.grib2 2026-04-30 16:13 1.9M
20260430T12Z_MSC_GDPS_WindDir_IsbL-0875_LatLon0.15_PT081H.grib2 2026-04-30 16:13 1.9M
20260430T12Z_MSC_GDPS_WindDir_IsbL-0900_LatLon0.15_PT081H.grib2 2026-04-30 16:13 2.0M
20260430T12Z_MSC_GDPS_WindDir_IsbL-0925_LatLon0.15_PT081H.grib2 2026-04-30 16:13 2.0M
20260430T12Z_MSC_GDPS_WindDir_IsbL-0950_LatLon0.15_PT081H.grib2 2026-04-30 16:13 2.0M
20260430T12Z_MSC_GDPS_WindDir_IsbL-0970_LatLon0.15_PT081H.grib2 2026-04-30 16:13 2.0M
20260430T12Z_MSC_GDPS_WindDir_IsbL-0985_LatLon0.15_PT081H.grib2 2026-04-30 16:13 2.0M
20260430T12Z_MSC_GDPS_WindDir_IsbL-1000_LatLon0.15_PT081H.grib2 2026-04-30 16:13 2.1M
20260430T12Z_MSC_GDPS_WindDir_IsbL-1015_LatLon0.15_PT081H.grib2 2026-04-30 16:13 2.0M
20260430T12Z_MSC_GDPS_WindGust-Max_AGL-10m_LatLon0.15_PT081H.grib2 2026-04-30 16:13 2.2M
20260430T12Z_MSC_GDPS_WindGust-Min_AGL-10m_LatLon0.15_PT081H.grib2 2026-04-30 16:13 2.2M
20260430T12Z_MSC_GDPS_WindGust_AGL-10m_LatLon0.15_PT081H.grib2 2026-04-30 16:13 2.2M
20260430T12Z_MSC_GDPS_WindSpeed_AGL-10m_LatLon0.15_PT081H.grib2 2026-04-30 16:13 1.1M
20260430T12Z_MSC_GDPS_WindSpeed_AGL-120m_LatLon0.15_PT081H.grib2 2026-04-30 16:13 1.2M
20260430T12Z_MSC_GDPS_WindSpeed_AGL-40m_LatLon0.15_PT081H.grib2 2026-04-30 16:13 1.2M
20260430T12Z_MSC_GDPS_WindSpeed_AGL-80m_LatLon0.15_PT081H.grib2 2026-04-30 16:13 1.2M
20260430T12Z_MSC_GDPS_WindSpeed_IsbL-0001_LatLon0.15_PT081H.grib2 2026-04-30 16:13 642K
20260430T12Z_MSC_GDPS_WindSpeed_IsbL-0005_LatLon0.15_PT081H.grib2 2026-04-30 16:13 613K
20260430T12Z_MSC_GDPS_WindSpeed_IsbL-0010_LatLon0.15_PT081H.grib2 2026-04-30 16:13 627K
20260430T12Z_MSC_GDPS_WindSpeed_IsbL-0020_LatLon0.15_PT081H.grib2 2026-04-30 16:13 862K
20260430T12Z_MSC_GDPS_WindSpeed_IsbL-0030_LatLon0.15_PT081H.grib2 2026-04-30 16:13 868K
20260430T12Z_MSC_GDPS_WindSpeed_IsbL-0050_LatLon0.15_PT081H.grib2 2026-04-30 16:13 910K
20260430T12Z_MSC_GDPS_WindSpeed_IsbL-0100_LatLon0.15_PT081H.grib2 2026-04-30 16:13 1.1M
20260430T12Z_MSC_GDPS_WindSpeed_IsbL-0150_LatLon0.15_PT081H.grib2 2026-04-30 16:13 952K
20260430T12Z_MSC_GDPS_WindSpeed_IsbL-0175_LatLon0.15_PT081H.grib2 2026-04-30 16:13 1.0M
20260430T12Z_MSC_GDPS_WindSpeed_IsbL-0200_LatLon0.15_PT081H.grib2 2026-04-30 16:13 1.1M
20260430T12Z_MSC_GDPS_WindSpeed_IsbL-0225_LatLon0.15_PT081H.grib2 2026-04-30 16:13 1.1M
20260430T12Z_MSC_GDPS_WindSpeed_IsbL-0250_LatLon0.15_PT081H.grib2 2026-04-30 16:13 1.1M
20260430T12Z_MSC_GDPS_WindSpeed_IsbL-0275_LatLon0.15_PT081H.grib2 2026-04-30 16:13 1.1M
20260430T12Z_MSC_GDPS_WindSpeed_IsbL-0300_LatLon0.15_PT081H.grib2 2026-04-30 16:13 1.1M
20260430T12Z_MSC_GDPS_WindSpeed_IsbL-0350_LatLon0.15_PT081H.grib2 2026-04-30 16:13 1.1M
20260430T12Z_MSC_GDPS_WindSpeed_IsbL-0400_LatLon0.15_PT081H.grib2 2026-04-30 16:13 1.1M
20260430T12Z_MSC_GDPS_WindSpeed_IsbL-0450_LatLon0.15_PT081H.grib2 2026-04-30 16:13 1.1M
20260430T12Z_MSC_GDPS_WindSpeed_IsbL-0500_LatLon0.15_PT081H.grib2 2026-04-30 16:13 1.1M
20260430T12Z_MSC_GDPS_WindSpeed_IsbL-0550_LatLon0.15_PT081H.grib2 2026-04-30 16:13 1.1M
20260430T12Z_MSC_GDPS_WindSpeed_IsbL-0600_LatLon0.15_PT081H.grib2 2026-04-30 16:13 1.4M
20260430T12Z_MSC_GDPS_WindSpeed_IsbL-0650_LatLon0.15_PT081H.grib2 2026-04-30 16:13 1.4M
20260430T12Z_MSC_GDPS_WindSpeed_IsbL-0700_LatLon0.15_PT081H.grib2 2026-04-30 16:13 1.5M
20260430T12Z_MSC_GDPS_WindSpeed_IsbL-0750_LatLon0.15_PT081H.grib2 2026-04-30 16:13 1.6M
20260430T12Z_MSC_GDPS_WindSpeed_IsbL-0800_LatLon0.15_PT081H.grib2 2026-04-30 16:13 1.3M
20260430T12Z_MSC_GDPS_WindSpeed_IsbL-0850_LatLon0.15_PT081H.grib2 2026-04-30 16:13 1.7M
20260430T12Z_MSC_GDPS_WindSpeed_IsbL-0875_LatLon0.15_PT081H.grib2 2026-04-30 16:13 1.8M
20260430T12Z_MSC_GDPS_WindSpeed_IsbL-0900_LatLon0.15_PT081H.grib2 2026-04-30 16:13 1.8M
20260430T12Z_MSC_GDPS_WindSpeed_IsbL-0925_LatLon0.15_PT081H.grib2 2026-04-30 16:13 1.8M
20260430T12Z_MSC_GDPS_WindSpeed_IsbL-0950_LatLon0.15_PT081H.grib2 2026-04-30 16:13 1.9M
20260430T12Z_MSC_GDPS_WindSpeed_IsbL-0970_LatLon0.15_PT081H.grib2 2026-04-30 16:13 1.9M
20260430T12Z_MSC_GDPS_WindSpeed_IsbL-0985_LatLon0.15_PT081H.grib2 2026-04-30 16:13 1.9M
20260430T12Z_MSC_GDPS_WindSpeed_IsbL-1000_LatLon0.15_PT081H.grib2 2026-04-30 16:13 1.8M
20260430T12Z_MSC_GDPS_WindSpeed_IsbL-1015_LatLon0.15_PT081H.grib2 2026-04-30 16:13 1.8M
20260430T12Z_MSC_GDPS_WindU_AGL-10m_LatLon0.15_PT081H.grib2 2026-04-30 16:13 1.3M
20260430T12Z_MSC_GDPS_WindU_AGL-120m_LatLon0.15_PT081H.grib2 2026-04-30 16:13 1.0M
20260430T12Z_MSC_GDPS_WindU_AGL-40m_LatLon0.15_PT081H.grib2 2026-04-30 16:13 1.0M
20260430T12Z_MSC_GDPS_WindU_AGL-80m_LatLon0.15_PT081H.grib2 2026-04-30 16:13 1.0M
20260430T12Z_MSC_GDPS_WindU_IsbL-0001_LatLon0.15_PT081H.grib2 2026-04-30 16:13 500K
20260430T12Z_MSC_GDPS_WindU_IsbL-0005_LatLon0.15_PT081H.grib2 2026-04-30 16:13 692K
20260430T12Z_MSC_GDPS_WindU_IsbL-0010_LatLon0.15_PT081H.grib2 2026-04-30 16:13 702K
20260430T12Z_MSC_GDPS_WindU_IsbL-0020_LatLon0.15_PT081H.grib2 2026-04-30 16:13 735K
20260430T12Z_MSC_GDPS_WindU_IsbL-0030_LatLon0.15_PT081H.grib2 2026-04-30 16:13 743K
20260430T12Z_MSC_GDPS_WindU_IsbL-0050_LatLon0.15_PT081H.grib2 2026-04-30 16:13 770K
20260430T12Z_MSC_GDPS_WindU_IsbL-0100_LatLon0.15_PT081H.grib2 2026-04-30 16:13 927K
20260430T12Z_MSC_GDPS_WindU_IsbL-0150_LatLon0.15_PT081H.grib2 2026-04-30 16:13 1.0M
20260430T12Z_MSC_GDPS_WindU_IsbL-0175_LatLon0.15_PT081H.grib2 2026-04-30 16:13 1.0M
20260430T12Z_MSC_GDPS_WindU_IsbL-0200_LatLon0.15_PT081H.grib2 2026-04-30 16:13 1.1M
20260430T12Z_MSC_GDPS_WindU_IsbL-0225_LatLon0.15_PT081H.grib2 2026-04-30 16:13 854K
20260430T12Z_MSC_GDPS_WindU_IsbL-0250_LatLon0.15_PT081H.grib2 2026-04-30 16:13 858K
20260430T12Z_MSC_GDPS_WindU_IsbL-0275_LatLon0.15_PT081H.grib2 2026-04-30 16:13 886K
20260430T12Z_MSC_GDPS_WindU_IsbL-0300_LatLon0.15_PT081H.grib2 2026-04-30 16:13 877K
20260430T12Z_MSC_GDPS_WindU_IsbL-0350_LatLon0.15_PT081H.grib2 2026-04-30 16:13 889K
20260430T12Z_MSC_GDPS_WindU_IsbL-0400_LatLon0.15_PT081H.grib2 2026-04-30 16:13 893K
20260430T12Z_MSC_GDPS_WindU_IsbL-0450_LatLon0.15_PT081H.grib2 2026-04-30 16:13 1.1M
20260430T12Z_MSC_GDPS_WindU_IsbL-0500_LatLon0.15_PT081H.grib2 2026-04-30 16:13 1.1M
20260430T12Z_MSC_GDPS_WindU_IsbL-0550_LatLon0.15_PT081H.grib2 2026-04-30 16:13 1.1M
20260430T12Z_MSC_GDPS_WindU_IsbL-0600_LatLon0.15_PT081H.grib2 2026-04-30 16:13 1.2M
20260430T12Z_MSC_GDPS_WindU_IsbL-0650_LatLon0.15_PT081H.grib2 2026-04-30 16:13 1.2M
20260430T12Z_MSC_GDPS_WindU_IsbL-0700_LatLon0.15_PT081H.grib2 2026-04-30 16:13 1.2M
20260430T12Z_MSC_GDPS_WindU_IsbL-0750_LatLon0.15_PT081H.grib2 2026-04-30 16:13 1.3M
20260430T12Z_MSC_GDPS_WindU_IsbL-0800_LatLon0.15_PT081H.grib2 2026-04-30 16:13 1.4M
20260430T12Z_MSC_GDPS_WindU_IsbL-0850_LatLon0.15_PT081H.grib2 2026-04-30 16:13 1.4M
20260430T12Z_MSC_GDPS_WindU_IsbL-0875_LatLon0.15_PT081H.grib2 2026-04-30 16:13 1.5M
20260430T12Z_MSC_GDPS_WindU_IsbL-0900_LatLon0.15_PT081H.grib2 2026-04-30 16:13 1.5M
20260430T12Z_MSC_GDPS_WindU_IsbL-0925_LatLon0.15_PT081H.grib2 2026-04-30 16:13 1.5M
20260430T12Z_MSC_GDPS_WindU_IsbL-0950_LatLon0.15_PT081H.grib2 2026-04-30 16:13 1.4M
20260430T12Z_MSC_GDPS_WindU_IsbL-0970_LatLon0.15_PT081H.grib2 2026-04-30 16:13 1.4M
20260430T12Z_MSC_GDPS_WindU_IsbL-0985_LatLon0.15_PT081H.grib2 2026-04-30 16:13 1.4M
20260430T12Z_MSC_GDPS_WindU_IsbL-1000_LatLon0.15_PT081H.grib2 2026-04-30 16:13 1.4M
20260430T12Z_MSC_GDPS_WindU_IsbL-1015_LatLon0.15_PT081H.grib2 2026-04-30 16:13 1.4M
20260430T12Z_MSC_GDPS_WindV_AGL-10m_LatLon0.15_PT081H.grib2 2026-04-30 16:13 1.3M
20260430T12Z_MSC_GDPS_WindV_AGL-120m_LatLon0.15_PT081H.grib2 2026-04-30 16:13 1.0M
20260430T12Z_MSC_GDPS_WindV_AGL-40m_LatLon0.15_PT081H.grib2 2026-04-30 16:13 967K
20260430T12Z_MSC_GDPS_WindV_AGL-80m_LatLon0.15_PT081H.grib2 2026-04-30 16:13 1.0M
20260430T12Z_MSC_GDPS_WindV_IsbL-0001_LatLon0.15_PT081H.grib2 2026-04-30 16:13 780K
20260430T12Z_MSC_GDPS_WindV_IsbL-0005_LatLon0.15_PT081H.grib2 2026-04-30 16:13 784K
20260430T12Z_MSC_GDPS_WindV_IsbL-0010_LatLon0.15_PT081H.grib2 2026-04-30 16:13 884K
20260430T12Z_MSC_GDPS_WindV_IsbL-0020_LatLon0.15_PT081H.grib2 2026-04-30 16:13 859K
20260430T12Z_MSC_GDPS_WindV_IsbL-0030_LatLon0.15_PT081H.grib2 2026-04-30 16:13 864K
20260430T12Z_MSC_GDPS_WindV_IsbL-0050_LatLon0.15_PT081H.grib2 2026-04-30 16:13 1.0M
20260430T12Z_MSC_GDPS_WindV_IsbL-0100_LatLon0.15_PT081H.grib2 2026-04-30 16:13 859K
20260430T12Z_MSC_GDPS_WindV_IsbL-0150_LatLon0.15_PT081H.grib2 2026-04-30 16:13 1.0M
20260430T12Z_MSC_GDPS_WindV_IsbL-0175_LatLon0.15_PT081H.grib2 2026-04-30 16:13 1.0M
20260430T12Z_MSC_GDPS_WindV_IsbL-0200_LatLon0.15_PT081H.grib2 2026-04-30 16:13 842K
20260430T12Z_MSC_GDPS_WindV_IsbL-0225_LatLon0.15_PT081H.grib2 2026-04-30 16:13 852K
20260430T12Z_MSC_GDPS_WindV_IsbL-0250_LatLon0.15_PT081H.grib2 2026-04-30 16:13 849K
20260430T12Z_MSC_GDPS_WindV_IsbL-0275_LatLon0.15_PT081H.grib2 2026-04-30 16:13 934K
20260430T12Z_MSC_GDPS_WindV_IsbL-0300_LatLon0.15_PT081H.grib2 2026-04-30 16:13 925K
20260430T12Z_MSC_GDPS_WindV_IsbL-0350_LatLon0.15_PT081H.grib2 2026-04-30 16:13 935K
20260430T12Z_MSC_GDPS_WindV_IsbL-0400_LatLon0.15_PT081H.grib2 2026-04-30 16:13 881K
20260430T12Z_MSC_GDPS_WindV_IsbL-0450_LatLon0.15_PT081H.grib2 2026-04-30 16:13 882K
20260430T12Z_MSC_GDPS_WindV_IsbL-0500_LatLon0.15_PT081H.grib2 2026-04-30 16:13 886K
20260430T12Z_MSC_GDPS_WindV_IsbL-0550_LatLon0.15_PT081H.grib2 2026-04-30 16:13 1.1M
20260430T12Z_MSC_GDPS_WindV_IsbL-0600_LatLon0.15_PT081H.grib2 2026-04-30 16:13 1.1M
20260430T12Z_MSC_GDPS_WindV_IsbL-0650_LatLon0.15_PT081H.grib2 2026-04-30 16:13 1.2M
20260430T12Z_MSC_GDPS_WindV_IsbL-0700_LatLon0.15_PT081H.grib2 2026-04-30 16:13 1.2M
20260430T12Z_MSC_GDPS_WindV_IsbL-0750_LatLon0.15_PT081H.grib2 2026-04-30 16:13 1.3M
20260430T12Z_MSC_GDPS_WindV_IsbL-0800_LatLon0.15_PT081H.grib2 2026-04-30 16:13 1.3M
20260430T12Z_MSC_GDPS_WindV_IsbL-0850_LatLon0.15_PT081H.grib2 2026-04-30 16:13 1.4M
20260430T12Z_MSC_GDPS_WindV_IsbL-0875_LatLon0.15_PT081H.grib2 2026-04-30 16:13 1.4M
20260430T12Z_MSC_GDPS_WindV_IsbL-0900_LatLon0.15_PT081H.grib2 2026-04-30 16:13 1.5M
20260430T12Z_MSC_GDPS_WindV_IsbL-0925_LatLon0.15_PT081H.grib2 2026-04-30 16:13 1.5M
20260430T12Z_MSC_GDPS_WindV_IsbL-0950_LatLon0.15_PT081H.grib2 2026-04-30 16:13 1.4M
20260430T12Z_MSC_GDPS_WindV_IsbL-0970_LatLon0.15_PT081H.grib2 2026-04-30 16:13 1.4M
20260430T12Z_MSC_GDPS_WindV_IsbL-0985_LatLon0.15_PT081H.grib2 2026-04-30 16:13 1.4M
20260430T12Z_MSC_GDPS_WindV_IsbL-1000_LatLon0.15_PT081H.grib2 2026-04-30 16:13 1.4M
20260430T12Z_MSC_GDPS_WindV_IsbL-1015_LatLon0.15_PT081H.grib2 2026-04-30 16:13 1.3M